Regional Weather Roundup
Issued by NWS

Home | Current Version | Previous Version | Graphics & Text | Print | Product List | Glossary Off
Versions: 1 2 3 4 5 6 7 8 9 10 11 12 13 14 15 16 17 18 19 20 21 22 23 24 25 26 27 28 29 30 31 32 33 34 35 36 37 38 39 40 41 42 43 44 45 46 47 48 49 50

745
ASUS45 KBOU 160507
RWRCO

WEATHER ROUNDUP FOR COLORADO
NATIONAL WEATHER SERVICE DENVER/BOULDER CO
1100 PM MDT SUN OCT 15 2017

NOTE: "FAIR" INDICATES FEW OR NO CLOUDS BELOW 12000 FEET WITH NO
SIGNIFICANT WEATHER AND/OR OBSTRUCTIONS TO VISIBILITY.

COZ001>005-013-030-031-160600-
...NORTHWEST COLORADO...

CITY           SKY/WX    TMP DP  RH WIND       PRES   REMARKS
CRAIG          FAIR      29  20  69 CALM      30.49S
HAYDEN         FAIR      39  16  39 E10       30.51S
MEEKER         FAIR      38  17  42 SE8       30.50S
RABBIT EARS PA FAIR      34  10  37 W8        30.63F WCI  27
STEAMBOAT SPGS FAIR      35  15  45 CALM      30.51F
WALDEN         FAIR      27  14  59 S8        30.54F WCI  18
$$

COZ006>008-011-160600-
...WEST CENTRAL VALLEYS...

CITY           SKY/WX    TMP DP  RH WIND       PRES   REMARKS
GRAND JUNCTION FAIR      41  13  31 E5        30.46R
MONTROSE       FAIR      37  16  42 SE12      30.52S
EAGLE          FAIR      34  17  50 SE5       30.54S WCI  30
RIFLE          FAIR      40  18  41 CALM      30.49S
DELTA          FAIR      41  10  27 E6        30.50R
NUCLA          FAIR      37   1  22 E8        30.53S
$$

COZ017>023-064>068-160600-
...SOUTHWEST COLORADO...

CITY           SKY/WX    TMP DP  RH WIND       PRES   REMARKS
DURANGO        FAIR      37  14  38 N7        30.52R
CORTEZ         FAIR      32  16  51 E7        30.50R WCI  26
PAGOSA SPRINGS FAIR      37  11  33 CALM      30.58R
TELLURIDE      FAIR     N/A N/A N/A SE9       30.64S
WOLF CREEK PAS FAIR      36   0  21 SW10      30.80S
$$

COZ009-010-012-014-032>034-037-058>063-160600-
...CENTRAL COLORADO...

CITY           SKY/WX    TMP DP  RH WIND       PRES   REMARKS
ASPEN          FAIR      35  14  42 S5        30.55S WCI  31
BUENA VISTA    FAIR      37  10  31 CALM      30.55R
COPPER MTN     NOT AVBL
BERTHOUD PASS  FAIR      30  21  69 NW33G41   30.68S WCI  14
COTTONWOOD PAS FAIR      46   1  15 NW5       30.62S
GUNNISON       FAIR      32  14  47 N3        30.58R
KREMMLING      FAIR      34  19  55 CALM      30.56R
LEADVILLE      FAIR      31   1  28 NE6       30.61S WCI  25
MONARCH PASS   FAIR      34   1  25 SW20      30.82S WCI  22
SALIDA         NOT AVBL
SUNLIGHT       FAIR      34   1  25 SW8       30.70S WCI  27
WILKERSON PASS FAIR      37  -8  14 NW6       30.70R
$$

COZ069>075-160600-
...SAN LUIS VALLEY/SANGRE DE CRISTO MOUNTAINS...

CITY           SKY/WX    TMP DP  RH WIND       PRES   REMARKS
ALAMOSA        FAIR      29  14  53 SE3       30.53S
DEL NORTE      FAIR      37  11  34 W14       30.56S
LA VETA PASS   FAIR      39   1  20 SW18      30.74S
SAGUACHE       FAIR      37   9  30 NW10      30.56R
$$

COZ035-036-038>040-160600-
...NORTHERN COLORADO FRONT RANGE...

CITY           SKY/WX    TMP DP  RH WIND       PRES   REMARKS
DENVER INTL AP FAIR      42  26  53 SW8       30.40F
DMNS CITY PARK   N/A     43  30  58 SE7       30.41F
AURORA         CLEAR     43  27  54 SW3       30.43S
FRONT RANGE AP FAIR      45  28  53 SW9       30.42S
ERIE MUNI ARPT FAIR      35  32  89 CALM      30.46F
BOULDER MUN AP FAIR      43  28  56 SW3       30.41S
CENTENNIAL     FAIR      43  25  49 S5        30.43S
BROOMFIELD     FAIR      48  27  43 NW5       30.43S
FORT COLLINS   FAIR      42  28  57 N3        30.41F
LONGMONT       FAIR      41  29  64 W5        30.43S
$$

COZ041-046-047-076>085-087-088-160600-
...PIKES PEAK/PALMER DIVIDE AND SOUTHERN FOOTHILLS...

CITY           SKY/WX    TMP DP  RH WIND       PRES   REMARKS
COLO. SPRINGS  FAIR      36  23  59 NE7       30.47F
A. F. ACADEMY  FAIR      33  21  60 N12       30.47S WCI  24
SCHRIEVER AFB  FAIR      41  18  40 MISG      30.48R
CHEYENNE MTN   FAIR      46  13  27 CALM      30.43S
ELLICOTT       FAIR     N/A N/A N/A SE5       30.46S
FALCON         FAIR      36  19  49 W6        30.49S
FORT CARSON    FAIR      42  20  42 N3        30.45S
LIMON          FAIR      28  25  88 NE5       30.44F WCI  23
MONUMENT HILL  FAIR      41  19  42 S13G18    30.48S
CANON CITY     CLEAR     43  25  49 W9        30.45F
WALSENBURG     FAIR      41  25  52 W7        30.47S
TRINIDAD       FAIR      42  28  57 W9        30.45S
$$

COZ042>045-048>051-090-091-160600-
...NORTHEAST COLORADO...

CITY           SKY/WX    TMP DP  RH WIND       PRES   REMARKS
GREELEY ARPT   FAIR      35  29  78 NW7       30.40F WCI  29
AKRON          FAIR      47  22  37 S13       30.39F
BURLINGTON     FAIR      44  27  51 SW10      30.41F
WRAY           FAIR      41  27  56 W6        30.40S
YUMA           NOT AVBL
STERLING       FAIR      34  30  86 CALM      30.37F
HOLYOKE        FAIR      41  32  70 SW7       30.38S
FORT MORGAN    FAIR      37  22  54 E5        30.39F
$$

COZ086-089-092>099-160600-
...SOUTHEAST COLORADO...

CITY           SKY/WX    TMP DP  RH WIND       PRES   REMARKS
PUEBLO         FAIR      40  24  53 W8        30.43S
LA JUNTA       FAIR      43  33  68 N5        30.39F
LAMAR          FAIR      39  28  64 NE6       30.39S
SPRINGFIELD      N/A     41  30  65 SW6       30.42F
$$




USA.gov is the U.S. government's official web portal to all federal, state and local government web resources and services.